OIBS  Sirri Island Airport

Add Bookmark

Iran

Status IATA
Operational SXI
Latitude Longitude
25° 54' 32" N 54° 32' 21" E
25.908899 54.539398
Local (DST + 5) UTC (GMT + 4)
Oct 26, 2014 11:10 Oct 26, 2014 07:40
Sunrise-Sunset Local UTC
Begin Civil Twilight 05:32 02:02
Sunrise 05:55 02:25
Sunset 05:15 13:45
End Civil Twilight 05:39 14:09

Current Weather

METAR Observed VFR
OIBS 260700Z 22010KT CAVOK 31/22 Q1013 Sun, Oct 26, 2014 @ 07:00 UTC
(40 Minutes ago)
Visual Flight Rules
Wind Visibility Clouds Conditions
220° at 10 knots (19 kph) 10 km or more
  • Clear skies
  • No significant weather
Temperatures Readings Precipitation
Current Temp 31°C (88°F)
Dewpoint 22°C (72°F)
Heat Index 35°C (95°F)
Humidity 59%
Altimeter 29.91"Hg
Sea Level Pressure 1013mb
Field Elevation 45.93'
None Recorded

Additional weather within a 92.6km radius of OIBS

Map ICAO Location
OIBA 49.4km E (094°)
OIBL 74.8km N (022°)
OIBK 88.3km N (321°)

24 Hour Weather History

Loading
-

24 Hour Weather Graphs

Loading
-

CheckWX.com is intended as a tool to help pilots better visualize weather data. It is not intended as a substitute for an official weather briefing obtained from a Flight Service Station. CheckWX.com does not meet the FAA requirements for an official pre-flight weather briefing. Therefore, it's important that pilots still call and obtain an official FSS pre-flight weather briefing.